Regional Weather Roundup
Issued by NWS

Home | Current Version | Previous Version | Graphics & Text | Print | Product List | Glossary On
Versions: 1 2 3 4 5 6 7 8 9 10 11 12 13 14 15 16 17 18 19 20 21 22 23 24 25 26 27 28 29 30 31 32 33 34 35 36 37 38 39 40 41 42 43 44 45 46 47 48 49 50
000
ASUS43 KLOT 221809
RWRIL

ILLINOIS REGIONAL WEATHER ROUNDUP
NATIONAL WEATHER SERVICE CHICAGO/ROMEOVILLE IL
100 PM CDT MON MAY 22 2017

NOTE: "FAIR" INDICATES FEW OR NO CLOUDS BELOW 12,000 FEET WITH NO
SIGNIFICANT WEATHER AND/OR OBSTRUCTIONS TO VISIBILITY.

* THESE STATIONS ARE NOT UNDER NWS QUALITY CONTROL. THEY ALSO MAY NOT
  REPORT WEATHER SUCH AS PRECIPITATION OR FOG.

ILZ001-002-007-009-015-016-024-221900-
NORTHWEST ILLINOIS

CITY           SKY/WX    TMP DP  RH WIND       PRES   REMARKS
MOLINE         CLOUDY    72  48  42 SW17G25   29.93F
6HR MIN TEMP:  51; 6HR MAX TEMP:  74;

STERLING*      SUNNY     72  51  47 SW16G24   29.94F
SAVANNA*       LGT RAIN  63  51  64 N8        29.94F
$$

ILZ003-004-008-010-011-017-018-221900-
NORTH CENTRAL ILLINOIS

CITY           SKY/WX    TMP DP  RH WIND       PRES   REMARKS
ROCKFORD       CLOUDY    70  48  45 W12G22    29.96F
6HR MIN TEMP:  48; 6HR MAX TEMP:  70;

FREEPORT*      CLOUDY    64  50  61 W9        29.97F
ROCHELLE*      MOSUNNY   69  51  52 SW14G24   29.96F
DE KALB*       MOSUNNY   69  51  52 SW18G24   29.98F
PERU*          SUNNY     71  47  41 SW21G26   29.98F
$$

ILZ005-006-012>014-019>023-221900-
NORTHEAST ILLINOIS

CITY           SKY/WX    TMP DP  RH WIND       PRES   REMARKS
CHICAGO-OHARE  MOSUNNY   68  46  45 SW13G25   29.97F
6HR MIN TEMP:  50; 6HR MAX TEMP:  68;

CHICAGO-MIDWAY MOSUNNY   70  46  42 SW15      29.99F
6HR MIN TEMP:  51; 6HR MAX TEMP:  70;

AURORA         SUNNY     71  49  45 SW16G29   29.98F
6HR MIN TEMP:  49; 6HR MAX TEMP:  71;

LANSING*       SUNNY     69  51  51 SW13G22   29.99F
WAUKEGAN       MOSUNNY   69  49  48 SW18G28   29.95F
6HR MIN TEMP:  49; 6HR MAX TEMP:  69;

DUPAGE AIRPORT SUNNY     68  49  50 SW15G29   29.97F
6HR MIN TEMP:  48; 6HR MAX TEMP:  69;

KANKAKEE*      SUNNY     72  47  40 SW17      30.02F
WHEELING       SUNNY     68  46  45 W14G23    29.98F
6HR MIN TEMP:  49; 6HR MAX TEMP:  68;

MORRIS*        MOSUNNY   71  46  40 SW17G25   29.98F
ROMEOVILLE*    SUNNY     70  52  53 W15G21    29.99F
NORTHERLY ISL    N/A     67  41  38 SW14        N/A
$$

LMZ740>746-221900-
SOUTHERN LAKE MICHIGAN

STATION/POSITION SKY/WX   TEMP    WIND        PRES    VSBY  WAVE
                          AIR SEA DIR/SP/G                  HT/PER
                          (F)     (DEG/KT/KT) (MB)    (MI)  (FT/S)
SOUTHERN BUOY              48 45  190/ 12/ 14 1015.7          2/ 4
WILMETTE HARBOR            62 54                N/A           1/ 2
HARRISON CRIB              65     250/ 15/ 18   N/A
BURNHAM HARBOR             67     250/  7/ 15   N/A
CALUMET HARBOR             67     210/  8/ 13 1015.0F
BURNS HARBOR               65     210/ 18/ 22 1016.3F
MICHIGAN CITY              62     220/ 11/ 12   N/A
MICHIGAN CITY 6N           58 54  240/  6/  8   N/A           1/ 3
ST. JOSEPH                 56 55  260/  6/  6 1016.3          2/ 4
$$

ILZ025>027-034>036-040-047-049-050-058-095>099-221900-
WEST-CENTRAL ILLINOIS

CITY           SKY/WX    TMP DP  RH WIND       PRES   REMARKS
QUINCY         CLOUDY    70  51  51 S15       30.01F
GALESBURG*     CLOUDY    72  50  47 SW15G23   29.96
MACOMB*        PTSUNNY   72  53  51 SW16      30.01F
JACKSONVILLE*  SUNNY     71  53  51 S15       30.03F
PITTSFIELD*    SUNNY     71  53  52 S13       30.04F
$$

ILZ028>032-037-038-041>044-048-051>054-059>061-221900-
CENTRAL ILLINOIS

CITY           SKY/WX    TMP DP  RH WIND       PRES   REMARKS
PONTIAC        SUNNY     73  48  41 SW17      30.01F
BLOOMINGTON    SUNNY     71  45  39 SW16G24   30.02F
DECATUR        SUNNY     70  45  40 SW17      30.05F
PEORIA         SUNNY     73  44  35 SW17      29.99F
6HR MIN TEMP:  51; 6HR MAX TEMP:  73;

LACON*         SUNNY     71  48  43 S13G18    29.98F
LINCOLN*       SUNNY     73  49  42 S9G16     30.02F
SPRINGFIELD    SUNNY     73  49  42 S16G22    30.03F
6HR MIN TEMP:  53; 6HR MAX TEMP:  73;

TAYLORVILLE    SUNNY     69  50  49 S14       30.06F
6HR MIN TEMP:  50; 6HR MAX TEMP:  69;

$$

ILZ033-039-045-046-055>057-062-063-221900-
EAST-CENTRAL ILLINOIS

CITY           SKY/WX    TMP DP  RH WIND       PRES   REMARKS
CHAMPAIGN      SUNNY     71  48  43 S14       30.05F
RANTOUL*       SUNNY     72  49  44 S10       30.04F
MATTOON        SUNNY     68  49  50 S10G18    30.07F
PARIS*         SUNNY     68  51  54 SW12      30.08F
$$

ILZ079-100>102-221900-
SOUTHWEST ILLINOIS

CITY           SKY/WX    TMP DP  RH WIND       PRES   REMARKS
ALTON          MOSUNNY   72  45  37 S12       30.07F
BELLEVILLE     SUNNY     73  47  40 E5        30.08F
CAHOKIA*       SUNNY     74  42  31 S8        30.07F
SPARTA*        SUNNY     70  45  40 SE12      30.09F
$$

ILZ064>066-069>071-074>076-080>082-084>086-088>090-092>094-221900-
SOUTH-CENTRAL ILLINOIS

CITY           SKY/WX    TMP DP  RH WIND       PRES   REMARKS
CARBONDALE     CLOUDY    71  45  39 SE7       30.10F
6HR MIN TEMP:  54; 6HR MAX TEMP:  71;

CAIRO*         CLOUDY    71  49  46 SE8       30.10F
EFFINGHAM*     SUNNY     70  48  46 SE9       30.10F
MARION         PTSUNNY   72  46  40 E6        30.11F
MT. VERNON       N/A     72  47  40 S6        30.10F
CENTRALIA*     SUNNY     71  51  47 SE5       30.09F
SALEM*         SUNNY     71  47  41 SE8       30.09F
METROPOLIS*    CLOUDY    71  50  46 S5        30.10F
$$

ILZ067-068-072-073-078-083-087-091-221900-
SOUTHEAST ILLINOIS

CITY           SKY/WX    TMP DP  RH WIND       PRES   REMARKS
LAWRENCEVILLE  CLOUDY    71  46  40 SE7       30.10F
FLORA*         MOSUNNY   71  47  42 S6        30.10F
FAIRFIELD*     CLOUDY    70  47  44 E3        30.09F
HARRISBURG*    MOSUNNY   73  46  38 E5        30.10F
ROBINSON*      SUNNY     69  46  43 S8        30.11F
CARMI*         CLOUDY    71  48  43 E5        30.10F
$$

ABBREVIATIONS USED IN REMARKS
   TC - TEMPERATURE IN CELSIUS
  WCI - WIND CHILL INDEX
   HX - HEAT INDEX
  VSB - VISIBILITY
$$




USA.gov is the U.S. government's official web portal to all federal, state and local government web resources and services.